www.pogodaiklimat.ru

Погода и климат >> Архив погоды >> Казахстан >> Опорная


ПОГОДА в Опорной

  • Прогноз погоды в Опорной
  • Монитор погоды в Опорной

АРХИВ ПОГОДЫ в Опорной

Время (UTC), дата Ветер
(напр.,м/с)
 
Видим.   Явления Облачность Т
(С)
Тd
(С)
f
(%)
Тe
(С)
Тes
(С)
Комфортность P
(гПа)
Po
(гПа)
Тmin
(С)
Tmax
(С)
R
(мм)
R24
(мм)
S
(см)
09 12.07 ЮВ 2 50 км 6/6 600 м
[Cu med, cong]
+40.0 +5.8 12 +37 +44 очень
жарко
1001.8
12 12.07 ЮВ 4 50 км 4/4 1000 м
[Cu med, cong]
+41.2 +5.0 11 +38 +42 очень
жарко
1000.0
15 12.07 ЮВ 3 50 км 4/4 1000 м
[Cu med, cong]
+41.0 +7.7 13 +39 +39 очень
жарко
999.0 +41.7
18 12.07 ЮВ 3 н/о зарница 6/6 1000 м
[Cb cap]
+37.2 +6.7 15 +35 +35 очень
жарко
999.3 +41.7
00 13.07 З 3 н/о 3/0
[Ac lent]
+28.2 +13.4 40 +30 +30 жарко 1001.0
03 13.07 СЗ 5 50 км 4/4 1000 м
[Cb calv]
+28.8 +18.6 54 +34 +35 очень
душно
1022.4
06 13.07 СЗ 2 50 км 4/0
[Ac trans]
+31.1 +16.5 41 +34 +45 душно 1003.2 +27.9
09 13.07 СЗ 4 10 км 9/0
[Ac trans Ci ing]
+35.6 +15.6 30 +37 +44 душно 1002.5
12 13.07 СЗ 4 50 км 6/0
[Ac trans]
+36.8 +13.1 24 +37 +41 очень
жарко
1002.4
15 13.07 СЗ 8 50 км зарница 9/9 600 м
[Cb cap]
+31.1 +13.7 35 +33 +33 душно 1004.4 +37.3
18 13.07 Ю 5 н/о в посл. час гроза 9/9 600 м
[Cb cap]
+27.8 +17.4 53 +32 +32 душно 1004.3 +37.3
21 13.07 ЮЗ 5 н/о слаб. ливневой дождь {гроза} 9/9 600 м
[Cb cap]
+27.1 +19.2 62 +33 +33 очень
душно
1006.3
00 14.07 С 3 н/о {ливн. осадки} 9/9 600 м
[Cb cap]
+23.5 +20.8 85 +29 +29 душно 1004.3
03 14.07 штиль 0 50 км в посл. час ливневой дождь 9/9 600 м
[Cb cap]
+24.0 +20.8 82 +30 +30 очень
душно
1003.0
06 14.07 С 2 50 км в посл. час ливневой дождь 9/9 600 м
[Cb cap]
+26.0 +23.2 85 +35 +36 очень
душно
1003.8 +23.0 2
09 14.07 С 3 50 км 9/0
[Ac trans]
+32.1 +21.0 52 +40 +46 очень
душно
1001.6
12 14.07 С 6 50 км 6/0
[Ac trans]
+35.1 +17.7 36 +39 +41 очень
душно
999.5
15 14.07 СЗ 14 2000 м пыльная буря {метель} ясно +25.0 +10.0 39 +26 +26 жарко 1002.4 +35.6
18 14.07 СЗ 8 н/о ясно +21.0 +9.4 47 +22 +22 комфорт 1005.3 +35.6 0.4
00 15.07 СЗ 4 н/о ясно +18.0 +7.0 49 +18 +18 1008.5
03 15.07 СЗ 4 50 км ясно +19.6 +6.7 43 +20 +22 1008.8
06 15.07 СЗ 4 50 км ясно +24.7 +8.8 36 +25 +35 комфорт 1009.6 +17.5
09 15.07 СЗ 4 50 км ясно +29.0 +9.3 29 +29 +41 жарко 1009.4
12 15.07 СЗ 4 50 км ясно +30.7 +8.9 26 +30 +36 жарко 1008.9
15 15.07 С 2 50 км ясно +30.3 +8.5 26 +30 +30 жарко 1008.2 +31.0
18 15.07 СЗ 1 н/о ясно +26.0 +9.8 36 +27 +27 жарко 1009.2 +31.0
21 15.07 С 1 н/о ясно +23.6 +9.2 40 +24 +24 комфорт 1009.4
00 16.07 СВ 1 н/о ясно +20.6 +11.9 57 +24 +24 комфорт 1009.6
03 16.07 В 3 50 км ясно +24.0 +9.8 41 +25 +28 комфорт 1009.7
06 16.07 В 6 50 км ясно +31.0 +9.4 26 +30 +36 жарко 1009.4 +20.0
09 16.07 В 6 50 км ясно +34.1 +6.5 18 +32 +39 жарко 1008.6
12 16.07 В 5 50 км ясно +36.1 +4.6 14 +33 +38 жарко 1007.3
15 16.07 В 5 50 км ясно +35.6 +4.6 15 +33 +33 жарко 1006.5 +36.6
18 16.07 В 1 н/о ясно +29.2 +3.6 20 +27 +27 жарко 1007.1 +36.6
21 16.07 В 1 н/о ясно +26.5 +5.3 26 +26 +26 жарко 1007.5
00 17.07 В 3 н/о 4/0
[Ac lent]
+25.5 +5.6 28 +25 +25 комфорт 1006.3
03 17.07 В 3 50 км в посл. час ливневой дождь 8/8 600 м
[Cb cap]
+26.3 +2.7 22 +25 +25 комфорт 1007.8
06 17.07 В 6 50 км 4/0
[Ac trans]
+34.3 +2.7 14 +31 +35 жарко 1006.2 +25.0 0.0
09 17.07 В 8 50 км 6/6 1000 м
[Cu med, cong]
+39.3 +3.6 11 +36 +37 очень
жарко
1005.0
12 17.07 В 6 50 км 5/5 1000 м
[Cu med, cong]
+40.4 +2.9 10 +37 +39 очень
жарко
1003.5
15 17.07 В 6 50 км 4/4 1000 м
[Cu med, cong]
+39.8 +2.5 10 +36 +36 очень
жарко
1002.7 +40.9
18 17.07 В 4 н/о ясно +35.0 +2.3 13 +32 +32 жарко 1002.5 +40.9
21 17.07 В 3 н/о в посл. час гроза 8/8 600 м
[Cb cap]
+29.1 +12.6 36 +30 +30 жарко 1004.1
00 18.07 В 2 н/о 6/6 600 м
[Cb cap]
+26.1 +16.8 57 +30 +30 душно 1005.3
03 18.07 В 8 50 км 8/8 600 м
[Cb cap]
+26.6 +17.0 56 +31 +31 душно 1006.1
06 18.07 В 8 50 км 8/0
[Ac und]
+35.1 +8.5 20 +34 +35 очень
жарко
1004.6 +25.5 0.4
09 18.07 ЮВ 9 50 км 8/8 600 м
[Cu med, cong Ac trans]
+39.4 +5.0 12 +36 +37 очень
жарко
1002.9
12 18.07 Ю 8 50 км 4/0
[Ac cast]
+42.4 +3.6 9 +39 +40 очень
жарко
1001.1
15 18.07 Ю 4 50 км 4/0
[Ac trans]
+42.8 +8.9 13 +41 +41 опасность
перегрева
999.8 +43.3
18 18.07 Ю 1 н/о ясно +35.0 +12.6 26 +35 +35 очень
жарко
1000.1 +43.3
21 18.07 ЮВ 1 н/о ясно +29.7 +10.2 30 +30 +30 жарко 1000.4
00 19.07 Ю 1 н/о ясно +28.0 +10.3 33 +28 +28 жарко 1001.8
06 19.07 З 6 50 км ясно +35.1 +5.8 16 +33 +38 жарко 1003.8 +26.9

 

Местоположение метеостанции Опорная (Мангистауская область, Казахстан): широта 46.13 долгота 54.58 высота над уровнем моря -4 м.

В архиве по умолчанию представлена погода в Опорной за последнюю неделю. Архивные данные за месяц целиком и за предыдущие месяцы, начиная с января 2011 года, Вы можете получить, выбрав интересующий диапазон дат из раскрывающегося списка и нажав кнопку "Ввод!".


*Определитесь, кто Вы:
робот инопланетянин человек

Внимание! Время в таблицах - всемирное. Для получения местного времени необходимо прибавить поправку, которая равна 4 ч.

Смотрите также архив погоды в соседних городах и на ближайших метеорологических станциях:

Погода в Кульсары (Атырауская область, Казахстан) (90 км)
Погода в Бейнеу (Мангистауская область, Казахстан) (102 км)
Погода в Саме (Мангистауская область, Казахстан) (144 км)
Погода в Макате (Атырауская область, Казахстан) (194 км)
Погода в Каракалпакии (Каракалпакстан, Узбекистан) (197 км)
Погода в Сай-Утесе (Мангистауская область, Казахстан) (218 км)
Погода в Атырау (Атырауская область, Казахстан) (231 км)
Погода в Сагизе (Атырауская область, Казахстан) (232 км)
Погода в Кызане (Мангистауская область, Казахстан) (256 км)
Погода в Махамбете (Атырауская область, Казахстан) (285 км)

Пояснения к столбцам:

Ветер - указаны скорость ветра в м/с - средняя за 10 мин, порывы в срок и между сроками (в фигурных скобках) и направление, откуда дует ветер: С - северный, СВ - северо-восточный, В - восточный, ЮВ - юго-восточный, Ю - южный, ЮЗ - юго-западный, З - западный, СЗ - северо-западный.
Видимость - горизонтальная дальность видимости в метрах или километрах. При видимости от 1 до 10 км при отсутствии осадков обычно наблюдается дымка, при ухудшении видимости до 1 км и менее - туман. В сухую погоду видимость может ухудшаться дымом, пылью или мглою.
Явления - указаны атмосферные явления, наблюдавшиеся в срок или в последний час перед сроком; фигурными скобками обозначены явления, наблюдавшиеся между сроками (за 1-3 часа до срока); квадратными скобками обозначены град или гололедные отложения с указанием их диаметра в мм.
Облачность - указаны через наклонную черту общая и нижняя облачность в баллах и высота нижней границы облаков в метрах; квадратными скобками обозначены формы облаков: Ci - перистые, Cs - перисто-слоистые, Cc - перисто-кучевые, Ac - высококучевые, As - высокослоистые, Sc - слоисто-кучевые, Ns - слоисто-дождевые, Cu - кучевые, Cb - кучево-дождевые. Подробнее классификацию облаков см. в Атласе облаков (PDF).
T - Температура воздуха - температура, измеренная на высоте 2 м над землей.
Td - Температура точки росы - температура, при понижении до которой содержащийся в воздухе водяной пар достигнет насыщения.
f - Относительная влажность воздуха - влажноcть воздуха, измеренная на высоте 2 м над землей.
Te - Эффективная температура - температура, которую ощущает одетый по сезону человек в тени. Характеристика душности погоды. При расчете учитывается влияние влажности воздуха и скорости ветра на теплоощущения человека.
Tes - Эффективная температура на солнце - температура, которую ощущает человек, с поправкой на солнечный нагрев. Характеристика знойности погоды. Зависит от высоты солнца над горизонтом, облачности и скорости ветра. Ночью, в пасмурную погоду, а также при ветре 12 м/с и более поправка равна нулю.
P - Атмосферное давление - приведенное к уровню моря атмосферное давление.
Po - Атмосферное давление - измеренное на уровне метеостанции атмосферное давление.
Tmin - Минимальная температура - минимум температуры воздуха на высоте 2 м над землей.
Tmax - Максимальная температура - максимум температуры воздуха на высоте 2 м над землей.
R - Количество осадков - Количество выпавших осадков за период времени, мм. При наведении курсора мыши на число - период времени, за который выпало указанное количество осадков.
R24 - Количество осадков - Количество выпавших осадков за 24 часа, мм.
S - Снежный покров - Высота снежного покрова, см. При наведении курсора мыши на число - состояние снежного покрова и степень покрытия местности в баллах.